Regional Weather Roundup
Issued by NWS

Home | Current Version | Previous Version | Text Only | Print | Product List | Glossary Off
Versions: 1 2 3 4 5 6 7 8 9 10 11 12 13 14 15 16 17 18 19 20 21 22 23 24 25 26 27 28 29 30 31 32 33 34 35 36 37 38 39 40 41 42 43 44 45 46 47 48 49 50

000
ASUS43 KLOT 192010
RWRIL

ILLINOIS REGIONAL WEATHER ROUNDUP
NATIONAL WEATHER SERVICE CHICAGO/ROMEOVILLE IL
300 PM CDT FRI SEP 19 2014

NOTE: "FAIR" INDICATES FEW OR NO CLOUDS BELOW 12,000 FEET WITH NO
SIGNIFICANT WEATHER AND/OR OBSTRUCTIONS TO VISIBILITY.

* THESE STATIONS ARE NOT UNDER NWS QUALITY CONTROL. THEY ALSO MAY NOT
  REPORT WEATHER SUCH AS PRECIPITATION OR FOG.

ILZ001-002-007-009-015-016-024-192100-
NORTHWEST ILLINOIS

CITY           SKY/WX    TMP DP  RH WIND       PRES   REMARKS
MOLINE         SUNNY     76  52  43 S14G24    30.00F
STERLING*      SUNNY     75  52  43 SW5       30.02F
SAVANNA*       SUNNY     76  50  39 SW16      29.99F
$$

ILZ003-004-008-010-011-017-018-192100-
NORTH CENTRAL ILLINOIS

CITY           SKY/WX    TMP DP  RH WIND       PRES   REMARKS
ROCKFORD       PTSUNNY   75  49  39 S20G31    30.03F
FREEPORT*      SUNNY     73  51  46 S18G25    30.03F
ROCHELLE*      SUNNY     75  46  34 S16G23    30.04F
DE KALB*       SUNNY     72  51  47 S20       30.04F
PERU*          SUNNY     76  48  37 S16G23    30.04F
$$

ILZ005-006-012>014-019>023-192100-
NORTHEAST ILLINOIS

CITY           SKY/WX    TMP DP  RH WIND       PRES   REMARKS
CHICAGO-OHARE  MOSUNNY   75  45  34 S16       30.05F
CHICAGO-MIDWAY MOSUNNY   75  44  33 S15G22    30.06F
AURORA         SUNNY     75  46  35 S20G26    30.04F
LANSING*       SUNNY     73  46  37 S15       30.08F
JOLIET*        SUNNY     74  42  31 S12G20    30.06F
WAUKEGAN       SUNNY     71  51  49 SE12G21   30.04F
DUPAGE AIRPORT SUNNY     75  47  36 S15       30.05F
KANKAKEE*      SUNNY     74  48  38 SE10      30.08F
WHEELING       SUNNY     75  46  35 S22G28    30.07F
MORRIS*        SUNNY     76  47  35 S14       30.05F
ROMEOVILLE*    SUNNY     74  42  31 S16G25    30.06F
NORTHERLY ISL    N/A     73  44  35 S13         N/A
$$

LMZ740>746-192100-
SOUTHERN LAKE MICHIGAN

STATION/POSITION SKY/WX   TEMP    WIND        PRES    VSBY  WAVE
                          AIR SEA DIR/SP/G                  HT/PER
                          (F)     (DEG/KT/KT) (MB)    (MI)  (FT/S)
SOUTHERN BUOY              65 65  170/ 14/ 17 1018.6F         3/ 5
WAUKEGAN HARBOR            66     150/ 17/ 20   N/A
HARRISON CRIB              68     160/ 17/ 19   N/A
BURNHAM HARBOR             73     150/ 14/ 17   N/A
CALUMET HARBOR             73     160/ 11/ 16 1017.1F
MICHIGAN CITY              70     140/ 13/ 19   N/A
MICHIGAN CITY 6N           69 65  150/ 12/ 17   N/A           1/ 2
ST. JOSEPH                 69 66  160/ 12/ 16   N/A           2/ 3
$$

ILZ025>027-034>036-040-047-049-050-058-095>099-192100-
WEST-CENTRAL ILLINOIS

CITY           SKY/WX    TMP DP  RH WIND       PRES   REMARKS
QUINCY         SUNNY     76  53  44 SE13      30.02F
GALESBURG*     SUNNY     75  54  47 S13G20    30.03F
MACOMB*        SUNNY     77  53  42 S10       30.05F
JACKSONVILLE*  SUNNY     79  55  43 SE12G18   30.05F HX  80
PITTSFIELD*    SUNNY     78  54  43 S8G16     30.05F
$$

ILZ028>032-037-038-041>044-048-051>054-059>061-192100-
CENTRAL ILLINOIS

CITY           SKY/WX    TMP DP  RH WIND       PRES   REMARKS
PONTIAC        SUNNY     79  45  29 S13G21    30.06F
DECATUR        SUNNY     76  50  40 S12       30.07F
PEORIA         SUNNY     78  53  41 S10G17    30.03F
LACON*         SUNNY     75  51  43 S13       30.03F
LINCOLN*       SUNNY     78  49  35 S12       30.02F
SPRINGFIELD    SUNNY     78  55  44 S13       30.05F
TAYLORVILLE    SUNNY     75  54  46 S9        30.06S
$$

ILZ033-039-045-046-055>057-062-063-192100-
EAST-CENTRAL ILLINOIS

CITY           SKY/WX    TMP DP  RH WIND       PRES   REMARKS
CHAMPAIGN      SUNNY     75  47  36 S9        30.08F
DANVILLE*      SUNNY     75  49  40 S7        30.06F HAZE
RANTOUL*       SUNNY     77  43  29 SE8       30.08F
MATTOON        SUNNY     74  49  41 S12       30.06F
PARIS*         SUNNY     76  49  38 SE9       30.09F
$$

ILZ079-100>102-192100-
SOUTHWEST ILLINOIS

CITY           SKY/WX    TMP DP  RH WIND       PRES   REMARKS
ALTON          SUNNY     77  52  41 S12       30.04F
BELLEVILLE     SUNNY     78  60  53 E10       30.04F HX  80
CAHOKIA*       MOSUNNY   78  58  49 SE9       30.03F
SPARTA*        MOSUNNY   79  58  47 SE8       30.04F HX  80
$$

ILZ064>066-069>071-074>076-080>082-084>086-088>090-092>094-192100-
SOUTH-CENTRAL ILLINOIS

CITY           SKY/WX    TMP DP  RH WIND       PRES   REMARKS
CARBONDALE     SUNNY     78  59  51 E3        30.03F
CAIRO*         SUNNY     82  58  44 CALM      30.02F HX  82
EFFINGHAM*     SUNNY     77  47  34 E7        30.06F
MARION         MOSUNNY   81  57  44 SE8       30.05F HX  81
MT. VERNON     SUNNY     79  55  44 E5        30.06F
CENTRALIA*     SUNNY     78  54  43 SE8       30.05F
SALEM*         SUNNY     77  58  50 SE8       30.05F
METROPOLIS*    SUNNY     82  58  44 NE3       30.02F HX  82
$$

ILZ067-068-072-073-078-083-087-091-192100-
SOUTHEAST ILLINOIS

CITY           SKY/WX    TMP DP  RH WIND       PRES   REMARKS
LAWRENCEVILLE  SUNNY     78  51  38 E8        30.07F
FLORA*         SUNNY     77  51  39 E9        30.06F
FAIRFIELD*     SUNNY    N/A N/A N/A SE5       30.05F
HARRISBURG*    MOSUNNY   80  56  43 SE6       30.06S HX  80
ROBINSON*      SUNNY     78  54  43 E12       30.09F
CARMI*         SUNNY     82  54  37 NE5       30.05S HX  81
$$

ABBREVIATIONS USED IN REMARKS
   TC - TEMPERATURE IN CELSIUS
  WCI - WIND CHILL INDEX
   HX - HEAT INDEX
  VSB - VISIBILITY
$$



USA.gov is the U.S. government's official web portal to all federal, state and local government web resources and services.